This is the latest recevied weather packets stored in our database for station/object WB4YDL. If no packets are shown the sender has not sent any weather packets the latest 10 day(s).
| Time | Temp. | Humidity | Pressure | Rain* | Wind** | Luminosity | Snow |
|---|---|---|---|---|---|---|---|
| 1777204968 | 16.67° C | 85% | 1007.4 hPa | 0 mm | - | 64 W/m² | - |
| 1777204664 | 16.67° C | 86% | 1006.9 hPa | 0 mm | - | 54 W/m² | - |
| 1777204359 | 16.11° C | 87% | 1007.2 hPa | 0 mm | - | 43 W/m² | - |
| 1777204057 | 16.11° C | 87% | 1007.3 hPa | 0 mm | - | 36 W/m² | - |
| 1777203756 | 15.56° C | 87% | 1006.9 hPa | 0 mm | - | 31 W/m² | - |
| 1777203451 | 15.56° C | 89% | 1007.2 hPa | 0 mm | - | 25 W/m² | - |
| 1777203148 | 15.56° C | 89% | 1007 hPa | 0 mm | - | 20 W/m² | - |
| 1777202845 | 15.56° C | 89% | 1006.9 hPa | 0 mm | - | 15 W/m² | - |
| 1777202543 | 15.56° C | 88% | 1006.8 hPa | 0 mm | - | 11 W/m² | - |
| 1777202238 | 15° C | 88% | 1007 hPa | 0 mm | - | 8 W/m² | - |
| 1777201935 | 14.44° C | 90% | 1006.6 hPa | 0 mm | - | 5 W/m² | - |
| 1777201631 | 14.44° C | 93% | 1006.8 hPa | 0 mm | - | 3 W/m² | - |
| 1777201327 | 14.44° C | 92% | 1006.9 hPa | 0 mm | - | 1 W/m² | - |
| 1777201022 | 14.44° C | 92% | 1006.8 hPa | 0 mm | - | 0 W/m² | - |
| 1777200719 | 15° C | 90% | 1006.7 hPa | 0 mm | - | 0 W/m² | - |
| 1777200419 | 15° C | 90% | 1006.7 hPa | 0 mm | - | 0 W/m² | - |
| 1777200115 | 15° C | 89% | 1006.7 hPa | 0 mm | - | 0 W/m² | - |
| 1777199811 | 15° C | 90% | 1006.5 hPa | 0 mm | - | 0 W/m² | - |
| 1777199506 | 15.56° C | 90% | 1006.6 hPa | 0 mm | - | 0 W/m² | - |
| 1777199206 | 15.56° C | 89% | 1006.6 hPa | 0 mm | - | 0 W/m² | - |
| 1777198905 | 16.11° C | 88% | 1006.5 hPa | 0 mm | - | 0 W/m² | - |
| 1777198602 | 15.56° C | 88% | 1006.7 hPa | 0 mm | - | 0 W/m² | - |
| 1777198300 | 16.11° C | 89% | 1006.6 hPa | 0 mm | - | 0 W/m² | - |
| 1777197996 | 15.56° C | 86% | 1006.5 hPa | 0 mm | - | 0 W/m² | - |
| 1777197692 | 15.56° C | 88% | 1006.5 hPa | 0 mm | - | 0 W/m² | - |
* Rain latest hour (hover to see other rain measurements)
** Current wind speed in m/s (hover to see current wind gust speed)